1487995200.48,46966,7.75,72354.8,-19.79,-51.11,-51.11,0,*6D
1487995201.72,46967,7.69,72352.0,-19.83,-51.25,-51.19,0,*66
1487995202.92,46968,7.69,72352.8,-19.79,-50.89,-50.89,0,*63
1487995204.14,46969,7.69,72354.5,-19.79,-51.19,-51.19,0,*62
1487995205.39,46970,7.69,72360.0,-19.81,-51.19,-51.11,0,*65
1487995206.63,46971,7.69,72356.5,-19.81,-51.19,-51.19,0,*6C
1487995207.87,46972,7.69,72362.8,-19.81,-51.19,-51.11,0,*67
1487995209.12,46973,7.69,72366.3,-19.81,-51.11,-51.19,0,*66
1487995210.35,46974,7.75,72372.8,-19.81,-50.97,-50.75,0,*65
1487995211.58,46975,7.69,72376.8,-19.81,-50.97,-50.97,0,*68
1487995212.82,46976,7.69,72382.0,-19.83,-51.25,-51.05,0,*6B
1487995214.08,46977,7.75,72380.0,-19.81,-51.33,-50.89,0,*6A
1487995215.32,46978,7.69,72348.0,-19.83,-51.05,-50.61,0,*64
1487995216.58,46979,7.69,72358.0,-19.81,-50.67,-50.53,0,*63
1487995217.85,46980,7.69,72358.8,-19.83,-50.83,-50.61,0,*6C
1487995219.08,46981,7.69,72372.0,-19.83,-50.97,-50.83,0,*64
1487995220.29,46982,7.69,72362.0,-19.83,-51.05,-50.75,0,*64
1487995221.52,46983,7.69,72374.8,-19.81,-50.97,-50.67,0,*6E
1487995222.78,46984,7.69,72348.8,-19.81,-50.75,-50.53,0,*62
1487995224.02,46985,7.69,72366.5,-19.81,-50.89,-50.67,0,*67
1487995225.28,46986,7.69,72376.0,-19.81,-50.25,-50.39,0,*69
1487995226.52,46987,7.69,72376.8,-19.81,-50.67,-50.47,0,*67
1487995227.76,46988,7.69,72360.0,-19.81,-50.47,-50.39,0,*63
1487995229.02,46989,7.69,72364.0,-19.79,-50.53,-50.25,0,*6D
1487995230.25,46990,7.69,72372.8,-19.79,-50.47,-50.53,0,*61
1487995231.48,46991,7.69,72368.0,-19.79,-50.89,-50.53,0,*62
1487995232.72,46992,7.69,72368.3,-19.79,-50.53,-50.39,0,*6A
1487995233.95,46993,7.69,72370.5,-19.79,-50.89,-50.53,0,*60
1487995235.21,46994,7.69,72378.0,-19.77,-50.39,-50.25,0,*63
1487995236.45,46995,7.69,72364.8,-19.79,-50.89,-50.53,0,*66
1487995237.66,46996,7.69,72366.5,-19.79,-50.75,-50.67,0,*61
1487995238.9,46997,7.69,72378.8,-19.79,-50.53,-50.75,0,*67
1487995240.14,46998,7.69,72366.3,-19.79,-50.17,-50.47,0,*69
1487995241.38,46999,7.69,72382.8,-19.79,-50.67,-50.53,0,*6A
1487995242.59,47000,7.69,72354.0,-19.79,-50.97,-50.89,0,*6A
1487995243.87,47001,7.69,72364.0,-19.81,-50.53,-50.53,0,*63
1487995245.12,47002,7.69,72362.0,-19.81,-50.39,-50.39,0,*60
1487995246.39,47003,7.69,72360.3,-19.81,-49.39,-49.81,0,*62
1487995247.65,47004,7.69,72362.0,-19.81,-48.69,-48.83,0,*62
1487995248.93,47005,7.69,72356.0,-19.81,-48.69,-49.33,0,*69
1487995250.22,47006,7.69,72370.5,-19.81,-49.19,-49.19,0,*64
1487995251.45,47007,7.69,72366.8,-19.81,-49.33,-49.75,0,*67
1487995252.72,47008,7.69,72360.0,-19.81,-50.17,-49.97,0,*6A
1487995253.99,47009,7.69,72366.3,-19.81,-50.03,-50.39,0,*62
1487995255.26,47010,7.69,72372.5,-19.81,-50.39,-50.25,0,*6E
1487995256.55,47011,7.69,72360.3,-19.81,-50.17,-50.25,0,*63
1487995257.83,47012,7.69,72370.0,-19.81,-50.17,-50.25,0,*60
1487995259.06,47013,7.69,72372.3,-19.81,-50.47,-50.47,0,*60
1487995260.33,47014,7.69,72374.0,-19.81,-50.25,-50.39,0,*6A
1487995261.6,47015,7.69,72372.8,-19.81,-49.81,-50.03,0,*64
1487995262.82,47016,7.69,72382.3,-19.79,-50.39,-50.47,0,*6B
1487995264.05,47017,7.75,72380.8,-19.81,-50.47,-50.47,0,*64
1487995265.31,47018,7.69,72376.3,-19.81,-50.47,-50.53,0,*6E
1487995266.51,47019,7.69,72386.5,-19.83,-50.97,-50.75,0,*64
1487995267.74,47020,7.69,72366.8,-19.83,-50.97,-50.53,0,*6A
1487995268.99,47021,7.69,72370.5,-19.81,-50.67,-50.39,0,*6A
1487995270.22,47022,7.69,72364.8,-19.83,-50.53,-50.47,0,*65
1487995271.48,47023,7.69,72366.0,-19.81,-50.39,-50.25,0,*6E
1487995272.73,47024,7.69,72366.8,-19.79,-50.39,-50.25,0,*6E
1487995273.94,47025,7.69,72370.5,-19.79,-50.39,-50.47,0,*6B
1487995275.19,47026,7.75,72370.0,-19.79,-50.39,-50.25,0,*6C
1487995276.41,47027,7.69,72368.3,-19.79,-50.39,-50.39,0,*60
1487995277.67,47028,7.69,72370.8,-19.77,-50.53,-50.39,0,*6D
1487995278.89,47029,7.69,72378.3,-19.79,-50.67,-50.67,0,*6E
1487995280.1,47030,7.69,72372.0,-19.79,-50.97,-50.89,0,*69
1487995281.32,47031,7.69,72374.0,-19.79,-51.19,-51.11,0,*6F
1487995282.56,47032,7.69,72366.5,-19.79,-51.33,-51.11,0,*64
1487995283.77,47033,7.69,72366.3,-19.79,-50.89,-50.67,0,*65
1487995284.98,47034,7.69,72364.0,-19.79,-51.11,-50.89,0,*62
1487995286.2,47035,7.69,72364.5,-19.79,-51.19,-51.11,0,*6B
1487995287.46,47036,7.69,72368.8,-19.79,-51.55,-51.33,0,*60
1487995288.68,47037,7.75,72370.5,-19.79,-51.41,-51.41,0,*61
1487995289.92,47038,7.69,72368.5,-19.81,-51.11,-50.97,0,*66
1487995291.15,47039,7.69,72366.8,-19.81,-50.97,-50.75,0,*64
1487995292.41,47040,7.69,72362.0,-19.83,-50.61,-50.53,0,*65
1487995293.68,47041,7.69,72358.3,-19.81,-50.53,-50.39,0,*6B
1487995294.91,47042,7.69,72348.5,-19.81,-50.47,-50.39,0,*6D
1487995296.2,47043,7.69,72346.3,-19.81,-50.53,-50.53,0,*65
1487995297.46,47044,7.69,72350.5,-19.81,-50.75,-50.53,0,*66
1487995298.68,47045,7.69,72358.8,-19.79,-50.75,-50.67,0,*67
1487995299.88,47046,7.69,72352.5,-19.79,-50.89,-50.75,0,*64
1487995301.09,47047,7.69,72360.0,-19.79,-50.89,-50.75,0,*65
1487995302.3,47048,7.69,72366.0,-19.79,-50.97,-50.75,0,*65
1487995303.52,47049,7.69,72362.8,-19.79,-50.75,-50.67,0,*6B
1487995304.76,47050,7.69,72368.5,-19.81,-50.67,-50.67,0,*67
1487995305.98,47051,7.69,72356.0,-19.79,-50.39,-50.47,0,*68
1487995307.22,47052,7.69,72356.5,-19.79,-50.39,-50.25,0,*6F
1487995308.48,47053,7.69,72354.5,-19.79,-50.25,-50.17,0,*62
1487995309.74,47054,7.69,72368.8,-19.79,-50.25,-50.25,0,*64
1487995311.02,47055,7.69,72366.3,-19.79,-50.03,-50.03,0,*65
1487995312.26,47056,7.69,72374.0,-19.79,-49.97,-50.03,0,*63
1487995313.55,47057,7.69,72378.3,-19.77,-50.17,-50.03,0,*6C
1487995314.84,47058,7.69,72376.8,-19.77,-50.17,-50.17,0,*66
1487995316.09,47059,7.69,72386.5,-19.77,-49.81,-49.81,0,*67
1487995317.34,47060,7.69,72390.3,-19.77,-49.81,-49.81,0,*6D
1487995318.61,47061,7.69,72392.3,-19.77,-49.53,-49.81,0,*63
1487995319.88,47062,7.69,72392.5,-19.77,-49.97,-50.17,0,*6F
1487995321.17,47063,7.69,72388.8,-19.73,-50.11,-50.17,0,*6C
1487995322.43,47064,7.69,72388.0,-19.71,-49.89,-50.03,0,*65
1487995323.71,47065,7.69,72390.5,-19.73,-50.17,-50.11,0,*6A
1487995324.99,47066,7.69,72386.8,-19.73,-50.17,-50.11,0,*69
1487995326.24,47067,7.69,72386.3,-19.77,-50.39,-50.39,0,*6A
1487995327.53,47068,7.69,72388.5,-19.73,-50.17,-50.17,0,*61
1487995328.82,47069,7.69,72384.3,-19.73,-50.33,-50.33,0,*60
1487995330.08,47070,7.69,72386.3,-19.71,-50.33,-49.97,0,*6C
1487995331.36,47071,7.69,72380.5,-19.71,-50.03,-50.03,0,*6B
1487995332.62,47072,7.69,72386.5,-19.71,-50.03,-49.89,0,*62
1487995333.9,47073,7.69,72370.5,-19.71,-50.03,-50.03,0,*69
1487995335.18,47074,7.69,72368.5,-19.73,-50.25,-50.11,0,*6B
1487995336.43,47075,7.69,72364.8,-19.71,-50.39,-50.11,0,*65
1487995337.67,47076,7.69,72362.3,-19.73,-50.47,-50.39,0,*67
1487995338.94,47077,7.69,72362.5,-19.71,-50.53,-50.33,0,*6B
1487995340.21,47078,7.69,72370.0,-19.71,-50.61,-50.53,0,*63
1487995341.46,47079,7.69,72364.8,-19.71,-50.53,-50.39,0,*6F
1487995342.74,47080,7.69,72382.3,-19.69,-50.39,-50.33,0,*66
1487995344.0,47081,7.69,72372.5,-19.69,-50.39,-50.39,0,*6D
1487995345.29,47082,7.69,72374.5,-19.69,-50.53,-50.53,0,*6E
1487995346.57,47083,7.69,72370.8,-19.67,-50.33,-50.33,0,*61
1487995347.85,47084,7.69,72374.8,-19.69,-49.89,-50.11,0,*61
1487995349.12,47085,7.69,72372.8,-19.69,-50.25,-50.39,0,*64
1487995350.37,47086,7.69,72376.8,-19.71,-50.25,-50.39,0,*6E
1487995351.65,47087,7.69,72368.8,-19.71,-50.61,-50.53,0,*63
1487995352.91,47088,7.69,72370.3,-19.71,-50.53,-50.53,0,*6D
1487995354.17,47089,7.69,72372.3,-19.71,-50.39,-50.53,0,*60
1487995355.42,47090,7.69,72376.5,-19.71,-50.25,-50.39,0,*69
1487995356.68,47091,7.69,72378.3,-19.73,-50.61,-50.67,0,*61
1487995357.92,47092,7.69,72384.3,-19.73,-51.05,-51.05,0,*64
1487995359.16,47093,7.69,72384.5,-19.73,-51.11,-51.11,0,*65
1487995360.43,47094,7.69,72390.3,-19.73,-51.25,-51.05,0,*60
1487995361.69,47095,7.69,72394.3,-19.73,-51.33,-51.11,0,*63
1487995362.98,47096,7.69,72396.3,-19.73,-51.33,-51.25,0,*67
1487995364.24,47097,7.69,72388.5,-19.77,-51.33,-51.11,0,*65
1487995365.53,47098,7.69,72394.3,-19.77,-51.33,-51.33,0,*6A
1487995366.8,47099,7.69,72386.8,-19.77,-51.41,-51.33,0,*6E
1487995368.06,47100,7.69,72392.8,-19.77,-51.33,-51.19,0,*62
1487995369.3,47101,7.69,72398.0,-19.79,-51.33,-51.19,0,*6D
1487995370.51,47102,7.69,72388.0,-19.79,-51.41,-51.11,0,*63
1487995371.75,47103,7.69,72376.3,-19.79,-51.33,-51.11,0,*67
1487995372.99,47104,7.69,72386.8,-19.79,-51.33,-50.97,0,*6F
1487995374.2,47105,7.69,72382.3,-19.79,-51.11,-50.89,0,*61
1487995375.41,47106,7.69,72376.5,-19.79,-50.97,-50.75,0,*6E
1487995376.62,47107,7.69,72384.5,-19.79,-51.11,-50.89,0,*63
1487995377.84,47108,7.69,72384.8,-19.79,-51.19,-50.97,0,*6B
1487995379.06,47109,7.69,72396.5,-19.79,-51.19,-50.89,0,*65
1487995380.28,47110,7.69,72394.5,-19.79,-51.19,-50.97,0,*62
1487995381.52,47111,7.69,72386.0,-19.81,-51.11,-50.89,0,*63
1487995382.75,47112,7.69,72386.3,-19.81,-50.89,-50.67,0,*60
1487995383.95,47113,7.69,72362.0,-19.83,-50.89,-50.47,0,*61
1487995385.22,47114,7.69,72362.5,-19.81,-50.67,-50.53,0,*61
1487995386.5,47115,7.69,72356.8,-19.81,-50.53,-50.53,0,*67
1487995387.74,47116,7.69,72350.8,-19.81,-50.39,-50.47,0,*6D
1487995389.04,47117,7.69,72354.3,-19.81,-50.03,-50.17,0,*60
1487995390.29,47118,7.69,72370.5,-19.81,-49.81,-49.97,0,*6D
1487995391.55,47119,7.69,72390.0,-19.81,-49.75,-50.25,0,*66
1487995392.81,47120,7.69,72398.8,-19.81,-50.17,-50.47,0,*64
1487995394.08,47121,7.69,72394.0,-19.81,-50.67,-50.53,0,*67
1487995395.32,47122,7.69,72394.0,-19.81,-50.75,-50.67,0,*60
1487995396.55,47123,7.69,72398.5,-19.83,-51.05,-50.83,0,*6F
1487995397.79,47124,7.69,72392.8,-19.81,-50.89,-50.67,0,*65
1487995399.05,47125,7.69,72382.5,-19.81,-50.75,-50.53,0,*60
1487995400.32,47126,7.69,72394.0,-19.81,-50.67,-50.53,0,*60
1487995401.55,47127,7.69,72374.5,-19.81,-50.89,-50.67,0,*66
1487995402.79,47128,7.69,72384.8,-19.81,-50.75,-50.67,0,*6A
1487995404.0,47129,7.69,72386.0,-19.83,-50.97,-50.67,0,*65
1487995405.24,47130,7.69,72382.0,-19.81,-51.19,-50.89,0,*68
1487995406.47,47131,7.69,72384.0,-19.81,-50.97,-50.75,0,*6D
1487995407.7,47132,7.69,72388.5,-19.81,-50.47,-50.47,0,*62
1487995408.93,47133,7.69,72390.3,-19.81,-50.47,-50.47,0,*63
1487995410.17,47134,7.69,72388.3,-19.81,-50.47,-50.39,0,*6D
1487995411.38,47135,7.69,72386.5,-19.79,-50.47,-50.39,0,*6B
1487995412.65,47136,7.69,72382.8,-19.81,-50.39,-50.03,0,*6F
1487995413.91,47137,7.69,72384.3,-19.79,-50.25,-50.17,0,*61
1487995415.21,47138,7.69,72374.8,-19.77,-50.03,-50.03,0,*61
1487995416.46,47139,7.69,72372.8,-19.79,-50.03,-49.97,0,*6B
1487995417.75,47140,7.69,72370.8,-19.77,-50.17,-50.03,0,*6B
1487995419.04,47141,7.69,72378.8,-19.77,-50.17,-50.03,0,*6A
1487995420.34,47142,7.69,72366.5,-19.77,-50.03,-50.17,0,*69
1487995421.62,47143,7.69,72362.8,-19.77,-50.17,-50.03,0,*68
1487995422.92,47144,7.69,72362.0,-19.77,-50.03,-50.03,0,*6A
1487995424.22,47145,7.69,72362.5,-19.77,-50.03,-50.17,0,*6E
1487995425.47,47146,7.69,72364.0,-19.73,-49.97,-49.89,0,*63
1487995426.72,47147,7.69,72372.0,-19.71,-49.89,-50.03,0,*65
1487995428.01,47148,7.69,72374.0,-19.73,-50.11,-50.11,0,*62
1487995429.29,47149,7.69,72384.3,-19.71,-50.33,-50.25,0,*66
1487995430.55,47150,7.69,72384.8,-19.71,-50.25,-50.11,0,*6E
1487995431.82,47151,7.69,72382.3,-19.71,-50.25,-50.25,0,*68
1487995433.09,47152,7.69,72388.0,-19.71,-50.25,-50.11,0,*6C
1487995434.37,47153,7.69,72388.3,-19.71,-50.33,-50.33,0,*6A
1487995435.67,47154,7.69,72384.0,-19.69,-50.33,-50.25,0,*63
1487995436.97,47155,7.69,72392.8,-19.69,-50.33,-50.33,0,*65
1487995438.25,47156,7.69,72400.0,-19.69,-50.39,-50.33,0,*6C
1487995439.53,47157,7.69,72406.3,-19.67,-50.33,-50.33,0,*69
1487995440.81,47158,7.69,72410.5,-19.69,-50.53,-50.39,0,*64
1487995442.07,47159,7.69,72416.5,-19.67,-50.53,-50.25,0,*66
1487995443.32,47160,7.69,72418.8,-19.67,-50.75,-50.25,0,*68
1487995444.6,47161,7.69,72410.3,-19.69,-50.75,-50.03,0,*63
1487995445.88,47162,7.69,72390.0,-19.69,-50.33,-49.81,0,*60
1487995447.18,47163,7.69,72350.8,-19.65,-50.53,-50.03,0,*69
1487995448.46,47164,7.69,72350.3,-19.65,-50.75,-50.33,0,*69
1487995449.74,47165,7.69,72352.8,-19.69,-50.61,-50.39,0,*6B
1487995451.03,47166,7.69,72352.0,-19.69,-50.53,-50.53,0,*65
1487995452.31,47167,7.69,72360.5,-19.67,-50.33,-50.25,0,*6D
1487995453.59,47168,7.69,72366.8,-19.69,-50.39,-50.33,0,*61
1487995454.88,47169,7.69,72370.0,-19.69,-50.33,-50.11,0,*6A
1487995456.11,47170,7.69,72372.0,-19.67,-49.81,-49.75,0,*67
1487995457.41,47171,7.69,72370.5,-19.69,-49.47,-49.39,0,*6A
1487995458.66,47172,7.69,72368.0,-19.67,-49.33,-48.91,0,*67
1487995459.92,47173,7.69,72350.5,-19.67,-49.39,-49.97,0,*6B
1487995461.2,47174,7.69,72358.3,-19.69,-49.89,-50.25,0,*68
1487995462.48,47175,7.69,72350.8,-19.69,-50.33,-50.39,0,*6D
1487995463.73,47176,7.69,72358.5,-19.69,-50.39,-50.75,0,*6C
1487995464.95,47177,7.69,72348.3,-19.67,-50.89,-50.89,0,*6B
1487995466.21,47178,7.69,72352.5,-19.69,-50.97,-50.83,0,*6F
1487995467.44,47179,7.69,72348.0,-19.67,-50.67,-50.75,0,*66
1487995468.72,47180,7.69,72354.3,-19.69,-50.75,-50.61,0,*68
1487995469.98,47181,7.69,72352.8,-19.67,-50.67,-50.33,0,*63
1487995471.28,47182,7.69,72350.0,-19.69,-50.61,-50.53,0,*6E
1487995472.58,47183,7.69,72358.3,-19.69,-50.25,-50.33,0,*69
1487995473.85,47184,7.69,72362.3,-19.67,-50.25,-50.25,0,*67
1487995475.1,47185,7.69,72366.5,-19.67,-49.97,-50.03,0,*63
1487995476.38,47186,7.69,72366.3,-19.69,-49.89,-50.11,0,*62
1487995477.67,47187,7.69,72366.3,-19.69,-50.25,-50.25,0,*6A
1487995478.91,47188,7.69,72348.5,-19.67,-49.97,-49.97,0,*6B
1487995480.14,47189,7.69,72354.3,-19.67,-49.97,-49.97,0,*6A
1487995481.42,47190,7.69,72352.8,-19.67,-50.17,-50.17,0,*62
1487995482.67,47191,7.69,72358.3,-19.67,-49.81,-50.17,0,*64
1487995483.95,47192,7.69,72358.3,-19.65,-50.33,-50.47,0,*61
1487995485.2,47193,7.69,72362.8,-19.65,-50.47,-50.47,0,*63
1487995486.51,47194,7.69,72354.8,-19.65,-50.33,-50.33,0,*64
1487995487.76,47195,7.69,72354.3,-19.67,-50.33,-50.47,0,*64
1487995489.04,47196,7.69,72354.8,-19.67,-50.17,-50.33,0,*62
1487995490.28,47197,7.69,72360.3,-19.67,-50.47,-50.53,0,*60
1487995491.5,47198,7.69,72348.5,-19.67,-50.47,-50.47,0,*6A
1487995492.77,47199,7.69,72350.0,-19.65,-50.53,-50.47,0,*6C
1487995494.05,47200,7.69,72352.5,-19.65,-50.67,-50.53,0,*6D
1487995495.31,47201,7.69,72358.3,-19.65,-50.67,-50.75,0,*68
1487995496.53,47202,7.69,72360.8,-19.67,-50.89,-50.75,0,*69
1487995497.76,47203,7.69,72360.0,-19.67,-50.67,-50.67,0,*6B
1487995498.99,47204,7.69,72362.0,-19.67,-50.75,-50.67,0,*6F
1487995500.2,47205,7.69,72362.3,-19.67,-50.89,-50.89,0,*6D
1487995501.43,47206,7.69,72366.5,-19.67,-50.75,-50.75,0,*6E
1487995502.65,47207,7.69,72358.3,-19.67,-50.97,-50.75,0,*63
1487995503.92,47208,7.69,72364.3,-19.69,-51.05,-50.83,0,*61
1487995505.16,47209,7.69,72366.3,-19.69,-50.97,-50.75,0,*63
1487995506.41,47210,7.69,72366.8,-19.69,-50.75,-50.67,0,*64
1487995507.69,47211,7.69,72370.5,-19.69,-50.75,-50.61,0,*63
1487995508.93,47212,7.69,72376.5,-19.67,-50.53,-50.47,0,*6E
1487995510.18,47213,7.69,72374.0,-19.69,-50.97,-50.75,0,*68
1487995511.4,47214,7.75,72380.3,-19.67,-50.97,-50.97,0,*6D
1487995512.67,47215,7.69,72384.3,-19.69,-51.05,-51.25,0,*60
1487995513.89,47216,7.69,72376.5,-19.67,-50.97,-50.89,0,*60
1487995515.17,47217,7.69,72386.5,-19.69,-50.75,-50.61,0,*65
1487995516.44,47218,7.69,72384.3,-19.69,-50.53,-50.47,0,*6A
1487995517.73,47219,7.69,72388.5,-19.69,-50.53,-50.53,0,*6E
1487995519.03,47220,7.69,72394.0,-19.69,-50.61,-50.53,0,*65
1487995520.33,47221,7.69,72394.8,-19.69,-50.61,-50.53,0,*64
1487995521.62,47222,7.69,72402.0,-19.69,-50.53,-50.53,0,*66
1487995522.89,47223,7.69,72398.3,-19.69,-50.61,-50.47,0,*63
1487995524.12,47224,7.69,72398.0,-19.67,-50.75,-50.67,0,*6D
1487995525.37,47225,7.69,72404.3,-19.67,-50.75,-50.53,0,*6B
1487995526.64,47226,7.69,72412.3,-19.69,-50.97,-50.83,0,*67
1487995527.9,47227,7.69,72398.5,-19.69,-50.97,-50.83,0,*66
1487995529.12,47228,7.69,72402.5,-19.67,-50.97,-50.75,0,*6E
1487995530.37,47229,7.69,72410.3,-19.69,-50.97,-50.97,0,*6D
1487995531.59,47230,7.69,72412.5,-19.67,-50.89,-50.75,0,*68
1487995532.86,47231,7.69,72408.5,-19.67,-50.53,-50.53,0,*6A
1487995534.16,47232,7.69,72412.8,-19.69,-50.83,-50.61,0,*6B
1487995535.43,47233,7.69,72406.8,-19.69,-50.75,-50.53,0,*62
1487995536.66,47234,7.69,72408.8,-19.67,-50.67,-50.47,0,*6D
1487995537.9,47235,7.69,72412.5,-19.67,-50.47,-50.33,0,*6D
1487995539.15,47236,7.69,72404.5,-19.67,-50.53,-50.47,0,*68
1487995540.42,47237,7.69,72406.3,-19.69,-50.83,-50.75,0,*6B
1487995541.72,47238,7.69,72380.0,-19.69,-50.83,-50.53,0,*60
1487995542.94,47239,7.69,72370.3,-19.67,-50.75,-50.47,0,*63
1487995544.16,47240,7.69,72366.0,-19.67,-50.89,-50.67,0,*6C
1487995545.38,47241,7.69,72368.5,-19.67,-50.89,-50.67,0,*6D
1487995546.61,47242,7.69,72374.3,-19.67,-50.75,-50.67,0,*6D
1487995547.88,47243,7.69,72382.8,-19.69,-50.75,-50.53,0,*65
1487995549.16,47244,7.69,72382.8,-19.67,-50.33,-50.33,0,*68
1487995550.44,47245,7.69,72376.3,-19.69,-50.61,-50.75,0,*62
1487995551.71,47246,7.69,72386.5,-19.69,-50.97,-50.83,0,*61
1487995552.93,47247,7.69,72386.3,-19.67,-50.97,-50.97,0,*6B
1487995554.14,47248,7.69,72388.0,-19.67,-50.89,-51.05,0,*61
1487995555.39,47249,7.69,72392.5,-19.69,-50.97,-51.05,0,*61
1487995556.63,47250,7.69,72396.0,-19.69,-50.97,-51.19,0,*64
1487995557.88,47251,7.69,72408.8,-19.69,-50.97,-51.05,0,*68
1487995559.12,47252,7.69,72414.8,-19.69,-51.05,-50.97,0,*6B
1487995560.38,47253,7.69,72410.8,-19.69,-51.19,-51.19,0,*60
1487995561.61,47254,7.69,72402.8,-19.71,-51.19,-50.97,0,*69
1487995562.83,47255,7.69,72400.0,-19.71,-50.97,-51.05,0,*65
1487995564.07,47256,7.69,72398.5,-19.69,-51.05,-50.97,0,*6F
1487995565.33,47257,7.69,72398.8,-19.73,-51.05,-50.83,0,*60
1487995566.61,47258,7.69,72398.8,-19.71,-50.61,-50.53,0,*63
1487995567.88,47259,7.69,72398.3,-19.71,-50.83,-50.61,0,*6F
1487995569.19,47260,7.69,72396.0,-19.69,-50.83,-50.61,0,*6C
1487995570.49,47261,7.69,72390.5,-19.69,-50.83,-50.83,0,*61
1487995571.79,47262,7.69,72392.5,-19.69,-50.61,-50.53,0,*63
1487995573.08,47263,7.69,72398.3,-19.69,-50.53,-50.53,0,*63
1487995574.36,47264,7.69,72392.0,-19.67,-50.61,-50.53,0,*6B
1487995575.65,47265,7.69,72398.8,-19.69,-50.61,-50.53,0,*64
1487995576.93,47266,7.69,72402.8,-19.69,-50.75,-50.53,0,*62
1487995578.18,47267,7.69,72410.3,-19.67,-50.75,-50.53,0,*6D
1487995579.45,47268,7.69,72378.0,-19.69,-50.83,-50.75,0,*61
1487995580.73,47269,7.69,72376.8,-19.69,-50.75,-50.61,0,*6C
1487995582.01,47270,7.69,72380.0,-19.67,-50.33,-50.25,0,*68
1487995583.26,47271,7.69,72376.5,-19.69,-50.39,-50.39,0,*60
1487995584.49,47272,7.69,72380.3,-19.67,-50.75,-50.47,0,*6C
1487995585.74,47273,7.69,72378.8,-19.67,-50.67,-50.53,0,*6B
1487995586.99,47274,7.69,72372.5,-19.67,-50.67,-50.53,0,*6C
1487995588.21,47275,7.69,72380.8,-19.67,-50.89,-50.75,0,*69
1487995589.47,47276,7.69,72390.3,-19.67,-50.67,-50.33,0,*68
1487995590.74,47277,7.69,72372.5,-19.67,-50.53,-50.33,0,*6E
1487995592.05,47278,7.69,72366.3,-19.65,-50.33,-50.25,0,*62
1487995593.36,47279,7.69,72380.3,-19.65,-50.33,-50.33,0,*64
1487995594.65,47280,7.69,72380.8,-19.65,-50.53,-50.25,0,*63
1487995595.88,47281,7.69,72334.5,-19.63,-50.75,-50.67,0,*66
1487995597.14,47282,7.69,72350.8,-19.65,-50.75,-50.75,0,*60
1487995598.44,47283,7.69,72350.0,-19.65,-50.53,-50.53,0,*61
1487995599.65,47284,7.69,72348.0,-19.63,-50.47,-50.47,0,*60
1487995600.92,47285,7.69,72358.8,-19.65,-50.53,-50.47,0,*62
1487995602.2,47286,7.69,72340.5,-19.65,-50.53,-50.47,0,*61
1487995603.48,47287,7.69,72336.0,-19.63,-50.33,-50.33,0,*63
1487995604.76,47288,7.69,72354.0,-19.63,-50.03,-50.25,0,*68
1487995606.0,47289,7.69,72352.8,-19.63,-50.53,-50.47,0,*68
1487995607.21,47290,7.69,72342.8,-19.63,-50.47,-50.47,0,*65
1487995608.48,47291,7.69,72350.8,-19.63,-50.53,-50.53,0,*64
1487995609.73,47292,7.69,72356.8,-19.63,-50.75,-50.53,0,*63
1487995610.99,47293,7.69,72358.3,-19.65,-50.75,-50.67,0,*63
1487995612.23,47294,7.69,72348.0,-19.63,-50.53,-50.47,0,*64
1487995613.46,47295,7.69,72354.5,-19.59,-50.39,-50.39,0,*69
1487995614.7,47296,7.69,72346.0,-19.63,-50.53,-50.47,0,*66
1487995615.95,47297,7.69,72348.8,-19.59,-50.47,-50.25,0,*6F
1487995617.22,47298,7.69,72354.5,-19.59,-50.25,-50.17,0,*65
1487995618.46,47299,7.69,72366.8,-19.59,-50.47,-50.25,0,*61
1487995619.68,47300,7.69,72360.8,-19.59,-50.67,-50.47,0,*66
1487995620.94,47301,7.69,72340.8,-19.59,-50.61,-50.39,0,*68
1487995622.24,47302,7.69,72338.3,-19.57,-50.83,-50.61,0,*64
1487995623.52,47303,7.69,72342.0,-19.59,-50.83,-50.61,0,*6B
1487995624.77,47304,7.69,72356.5,-19.59,-50.61,-50.67,0,*66
1487995626.02,47305,7.69,72350.8,-19.59,-50.83,-50.67,0,*6B
1487995627.28,47306,7.69,72342.3,-19.57,-50.67,-50.47,0,*6E
1487995628.58,47307,7.69,72336.5,-19.57,-50.11,-50.17,0,*6B
1487995629.84,47308,7.69,72348.0,-19.59,-50.61,-50.39,0,*61
1487995631.09,47309,7.69,72342.0,-19.59,-50.61,-50.47,0,*69
1487995632.31,47310,7.69,72344.0,-19.59,-50.39,-50.47,0,*6C
1487995633.59,47311,7.69,72352.8,-19.59,-50.61,-50.61,0,*64
1487995634.87,47312,7.69,72352.0,-19.57,-50.17,-50.39,0,*65
1487995636.15,47313,7.69,72336.8,-19.57,-50.39,-50.25,0,*65
1487995637.37,47314,7.69,72340.3,-19.59,-49.25,-49.75,0,*64
1487995638.65,47315,7.69,72338.8,-19.57,-49.53,-49.97,0,*66
1487995639.89,47316,7.69,72340.5,-19.59,-49.25,-50.11,0,*6C
1487995641.14,47317,7.69,72356.3,-19.59,-49.67,-50.11,0,*6B
1487995642.41,47318,7.69,72348.0,-19.59,-49.53,-50.25,0,*64
1487995643.66,47319,7.69,72356.3,-19.59,-48.13,-49.75,0,*6D
1487995644.89,47320,7.69,72370.3,-19.59,-47.99,-49.05,0,*6D
1487995646.14,47321,7.69,72382.3,-19.59,-47.51,-49.11,0,*6D
1487995647.36,47322,7.69,72390.8,-19.59,-47.99,-49.89,0,*6B
1487995648.6,47323,7.69,72394.3,-19.59,-48.77,-49.67,0,*65
1487995649.84,47324,7.69,72390.8,-19.59,-48.91,-49.67,0,*6A
1487995651.09,47325,7.69,72386.0,-19.63,-48.41,-49.19,0,*66
1487995652.33,47326,7.69,72398.3,-19.63,-48.49,-49.53,0,*63
1487995653.61,47327,7.69,72396.8,-19.63,-49.53,-50.33,0,*66
1487995654.86,47328,7.69,72396.0,-19.59,-49.89,-50.25,0,*60
1487995656.16,47329,7.69,72400.5,-19.65,-49.61,-50.53,0,*69
1487995657.45,47330,7.69,72402.5,-19.65,-50.03,-50.89,0,*6A
1487995658.68,47331,7.69,72400.5,-19.63,-50.67,-50.89,0,*6F
1487995659.9,47332,7.69,72404.5,-19.63,-50.89,-50.97,0,*63
1487995661.12,47333,7.69,72408.8,-19.63,-50.97,-50.97,0,*6D
1487995662.34,47334,7.69,72402.5,-19.63,-50.97,-51.11,0,*65
1487995663.59,47335,7.69,72398.0,-19.65,-51.11,-50.89,0,*6D
1487995664.81,47336,7.69,72400.3,-19.63,-50.97,-50.97,0,*68
1487995666.03,47337,7.69,72404.5,-19.63,-50.97,-51.11,0,*66
1487995667.28,47338,7.69,72406.0,-19.65,-50.97,-50.97,0,*60
1487995668.53,47339,7.69,72396.3,-19.65,-51.11,-50.97,0,*6E
1487995669.79,47340,7.69,72398.3,-19.65,-50.97,-50.97,0,*6F
1487995671.03,47341,7.69,72402.0,-19.65,-50.89,-50.89,0,*6E
1487995672.28,47342,7.69,72408.5,-19.65,-50.89,-50.89,0,*6D
1487995673.52,47343,7.69,72404.0,-19.65,-50.97,-50.89,0,*63
1487995674.77,47344,7.69,72370.5,-19.65,-50.97,-50.89,0,*64
1487995675.99,47345,7.69,72368.8,-19.63,-50.97,-50.97,0,*6C
1487995677.23,47346,7.69,72374.5,-19.65,-50.97,-50.89,0,*66
1487995678.49,47347,7.69,72376.5,-19.65,-50.75,-50.67,0,*6B
1487995679.74,47348,7.69,72370.8,-19.65,-50.97,-50.75,0,*6B
1487995680.99,47349,7.69,72362.8,-19.65,-50.89,-50.67,0,*66
1487995682.21,47350,7.69,72362.5,-19.63,-50.97,-50.67,0,*67
1487995683.45,47351,7.69,72366.3,-19.65,-50.89,-50.75,0,*6C
1487995684.67,47352,7.69,72372.0,-19.63,-50.89,-50.89,0,*6A
1487995685.92,47353,7.69,72362.3,-19.65,-50.67,-50.47,0,*6F
1487995687.17,47354,7.69,72356.3,-19.65,-50.89,-50.75,0,*69
1487995688.39,47355,7.69,72350.8,-19.63,-50.89,-50.67,0,*6D
1487995689.64,47356,7.69,72344.8,-19.63,-50.67,-50.53,0,*69
1487995690.86,47357,7.69,72352.5,-19.63,-50.97,-50.75,0,*63
1487995692.08,47358,7.69,72362.3,-19.63,-50.97,-50.75,0,*6C
1487995693.33,47359,7.69,72360.8,-19.65,-50.75,-50.75,0,*67
1487995694.56,47360,7.69,72358.5,-19.63,-50.75,-50.67,0,*68
1487995695.81,47361,7.69,72366.5,-19.65,-50.97,-50.67,0,*63
1487995697.06,47362,7.69,72374.0,-19.65,-50.97,-50.75,0,*63
1487995698.31,47363,7.69,72372.0,-19.65,-50.89,-50.75,0,*6D
1487995699.52,47364,7.69,72372.8,-19.63,-50.97,-50.89,0,*60
1487995700.77,47365,7.69,72368.8,-19.65,-50.97,-50.89,0,*67